Regional Weather Roundup
Issued by NWS

Home | Current Version | Previous Version | Graphics & Text | Print | Product List | Glossary On
Versions: 1 2 3 4 5 6 7 8 9 10 11 12 13 14 15 16 17 18 19 20 21 22 23 24 25 26 27 28 29 30 31 32 33 34 35 36 37 38 39 40 41 42 43 44 45 46 47 48 49 50
000
ASUS43 KDMX 200907
RWRIA

WEATHER ROUNDUP FOR IOWA
NATIONAL WEATHER SERVICE DES MOINES IA
400 AM CDT MON APR 20 2015

NOTE: "FAIR" INDICATES FEW OR NO CLOUDS BELOW 12,000 FEET WITH NO
SIGNIFICANT WEATHER AND/OR OBSTRUCTIONS TO VISIBILITY.

* - THESE STATIONS ARE NOT NWS STATIONS...THUS NOT UNDER NWS
QUALITY CONTROL.  THEY ALSO DO NOT REPORT WEATHER SUCH
AS PRECIPITATION OR FOG.

IAZ001>003-012>014-020>022-031>034-043>046-201000-
   NORTHWEST IOWA

CITY           SKY/WX    TMP DP  RH WIND       PRES   REMARKS
CARROLL *      PTCLDY    41  37  87 NW21G26   29.66S
CHEROKEE *     PTCLDY    39  36  87 NW10      29.69S WCI  32
DENISON *      CLEAR     41  39  93 NW12G20   29.69R
LE MARS *      PTCLDY    39  34  81 NW15      29.73S WCI  31
ORANGE CITY *  PTCLDY    36  34  93 NW14      29.70S WCI  27
SHELDON *      CLOUDY    39  37  93 NW14G20   29.67S WCI  31
SIOUX CITY     PTCLDY    42  32  67 NW16      29.74S
SPENCER        CLOUDY    41  36  82 NW13      29.65S
STORM LAKE *   PTCLDY    39  36  87 NW17G23   29.67S WCI  30
$$

IAZ055>058-069>071-079>083-090>094-201000-
   SOUTHWEST IOWA

CITY           SKY/WX    TMP DP  RH WIND       PRES   REMARKS
ATLANTIC *     CLEAR     41  37  87 NW16      29.70S
AUDUBON *      CLEAR     41  36  81 NW8       29.69R
CLARINDA *     CLEAR     45  37  76 NW13G21   29.74S
COUNCIL BLFS * CLEAR     43  37  81 NW14G26   29.75R
CRESTON *      CLEAR     41  39  93 NW20G29   29.67S
HARLAN  *        N/A     41  41 100 NW16      29.75R
LAMONI         CLEAR     44  37  76 NW16      29.66R
RED OAK *      CLEAR     43  37  81 NW13G20   29.73R
SHENANDOAH *   CLEAR     45  37  76 NW14      29.75S
$$

IAZ047>049-059>061-072>074-084-201000-
   CENTRAL IOWA

CITY           SKY/WX    TMP DP  RH WIND       PRES   REMARKS
AMES           CLOUDY    45  38  76 NW18G26   29.59R
ANKENY *       CLOUDY    45  39  81 NW17G28   29.60R
CHARITON *     CLOUDY    45  39  81 NW17G24   29.61R
DES MOINES     CLOUDY    46  38  73 NW15G29   29.61R
GRINNELL*      CLOUDY    45  39  81 NW29G36   29.53R
KNOXVILLE *    MOCLDY    45  37  76 NW22G35   29.57R
MARSHALLTOWN   CLOUDY    44  38  79 NW29G36   29.53R
PELLA *        PTCLDY    45  41  87 NW22G30   29.57S
PERRY *          N/A     43  39  87 NW21G28   29.64R
$$

IAZ004>006-015-016-023>025-035-036-201000-
   NORTH CENTRAL IOWA

CITY           SKY/WX    TMP DP  RH WIND       PRES   REMARKS
ALGONA *       PTCLDY    41  37  87 NW20G31   29.60S
CLARION *      MOCLDY    41  39  93 NW22G31   29.57S
ESTHERVILLE    MOCLDY    40  36  86 NW21G30   29.62S WCI  30
FORT DODGE *   MOCLDY    43  34  70 NW12      29.61S
MASON CITY     CLOUDY    41  34  76 NW29G41   29.55R
FOREST CITY *  MOCLDY    39  36  87 NW17G25   29.55S WCI  30
IOWA FALLS *   CLOUDY    43  37  81 NW28G33   29.55S
$$

IAZ007>011-017>019-026>030-037>042-050>054-066-201000-
   NORTHEAST IOWA

CITY           SKY/WX    TMP DP  RH WIND       PRES   REMARKS
CEDAR RAPIDS   LGT RAIN  44  43  96 NW24G32   29.44R
CHARLES CITY * LGT RAIN  43  41  93 NW21G29   29.48S
CLINTON *      PTCLDY    48  43  81 NW22G36   29.35R
DECORAH *      RAIN      41  41 100 NW18G25   29.41S
DUBUQUE        CLOUDY    46  45  96 NW22G30   29.32S FOG
MONTICELLO *   LGT RAIN  45  45 100 NW25G35   29.37S
OELWEIN *      MIX PCPN  43  41  93 NW23      29.44S
WATERLOO       LGT RAIN  43  39  86 NW23G36   29.47R
$$

IAZ064-065-067-068-078-201000-
   EAST CENTRAL IOWA

CITY           SKY/WX    TMP DP  RH WIND       PRES   REMARKS
DAVENPORT      LGT RAIN  47  42  83 NW30G37   29.37R
IOWA CITY      CLOUDY    46  43  89 NW18G28   29.46R
MT. PLEASANT * CLOUDY    46  41  81 W16G22    29.48S
MUSCATINE *    CLOUDY    48  43  81 NW22G31   29.43S
QUAD CITIES    LGT RAIN  48  44  86 W24G31    29.37R
$$

IAZ062-063-075>077-085>089-095>099-201000-
   SOUTHEAST IOWA

CITY           SKY/WX    TMP DP  RH WIND       PRES   REMARKS
BURLINGTON     CLOUDY    48  43  82 NW18G26   29.46R
FAIRFIELD *    CLOUDY    48  41  76 NW20G29   29.50S
FORT MADISON * CLOUDY    46  43  87 W15G25    29.49R
KEOKUK *       CLOUDY    48  43  81 W16       29.50R
OSKALOOSA *    CLOUDY    45  39  81 NW25G39   29.54R
CENTERVILLE *  MOCLDY    46  41  81 NW22G28   29.60R
OTTUMWA        CLOUDY    47  40  76 NW20G29   29.53S
WASHINGTON *   CLOUDY    46  46 100 NW17G29   29.48S
$$

ABBREVIATIONS USED IN REMARKS
   TC - TEMPERATURES IN CELSIUS
  WCI - WIND CHILL INDEX
   HX - HEAT INDEX
  VSB - VISIBILITY
$$



USA.gov is the U.S. government's official web portal to all federal, state and local government web resources and services.